sat.trackr.live / text

‹ back to catalog

STARLINK-11575 [DTC]

NORAD 63308 · 2025-057B

PAYLOAD ACTIVE UNKNOWN

§ Identity

Operator
Country
US
Launch date
2025-03-18
Launch site
AFETR
Launch vehicle
Mass (kg)
RCS (m²)

Purposes: comms

External: N2YO · Heavens-Above · Gunter

§ Orbital elements

Epoch: 2026-05-25T02:16:20.811648Z

Period
91.66 min
Inclination
43.0003°
Eccentricity
0.0000772
Mean motion
15.70964189 rev/d
Perigee alt
355.6 km
Apogee alt
356.7 km
Semi-major
6,734.3 km
B*
1.8543e-3
RAAN
164.0328°
Arg perigee
93.8723°
Mean anomaly
266.2233°
Rev number
6,919

§ Raw data

STARLINK-11575 [DTC]1 63308U 25057B   26145.09468532  .00245938  00000+0  18543-2 0  99972 63308  43.0003 164.0328 0000772  93.8723 266.2233 15.70964189 69193

JSON: /api/v1/satellites/63308 · /tle

For live sub-satellite position, see the globe view (requires WebGL).

§ Visibility from observer

Set your observer location to see the next 7 days of passes ≥ 10°. The values pass through the URL so the page stays shareable.

No JS? Fill the form by hand. The geolocation button needs JavaScript.